Time,TemperatureF,DewpointF,PressureIn,WindDirection,WindDirectionDegrees,WindSpeedMPH,WindSpeedGustMPH,Humidity,HourlyPrecipIn,Conditions,Clouds,dailyrainin,SoftwareType,DateUTC
2013-07-04 00:01:00,65.7,63.6,30.08,SSW,203,0.0,1.1,93,0.08,,,0.00,WUHU216HW,2013-07-04 04:01:00,
2013-07-04 00:06:00,65.5,63.5,30.08,SW,225,0.0,1.1,93,0.06,,,0.00,WUHU216HW,2013-07-04 04:06:00,
2013-07-04 00:11:00,65.5,63.5,30.08,WNW,293,0.0,0.7,93,0.06,,,0.00,WUHU216HW,2013-07-04 04:11:00,
2013-07-04 00:16:00,65.5,63.5,30.08,West,270,0.0,0.7,93,0.04,,,0.00,WUHU216HW,2013-07-04 04:16:00,
2013-07-04 00:21:00,65.5,63.5,30.07,West,270,0.4,0.4,93,0.04,,,0.00,WUHU216HW,2013-07-04 04:21:00,
2013-07-04 00:26:00,65.5,63.5,30.07,West,270,0.0,0.4,93,0.02,,,0.00,WUHU216HW,2013-07-04 04:26:00,
2013-07-04 00:31:00,65.5,63.5,30.07,West,270,0.0,0.4,93,0.02,,,0.00,WUHU216HW,2013-07-04 04:31:00,
2013-07-04 00:36:00,65.5,63.5,30.07,West,270,0.0,0.0,93,0.02,,,0.00,WUHU216HW,2013-07-04 04:36:00,
2013-07-04 00:41:00,65.5,63.5,30.07,West,270,0.0,0.0,93,0.01,,,0.00,WUHU216HW,2013-07-04 04:41:00,
2013-07-04 00:46:00,65.5,63.5,30.07,West,270,0.0,0.0,93,0.01,,,0.00,WUHU216HW,2013-07-04 04:46:00,
2013-07-04 00:51:00,65.5,63.5,30.07,West,270,0.0,0.0,93,0.01,,,0.00,WUHU216HW,2013-07-04 04:51:00,
2013-07-04 00:56:00,65.5,63.5,30.06,WNW,293,0.0,0.4,93,0.00,,,0.00,WUHU216HW,2013-07-04 04:56:00,
2013-07-04 01:01:00,65.3,63.3,30.07,WNW,293,0.0,0.4,93,0.00,,,0.00,WUHU216HW,2013-07-04 05:01:00,
2013-07-04 01:06:00,65.3,63.3,30.07,WNW,293,0.0,0.0,93,0.00,,,0.00,WUHU216HW,2013-07-04 05:06:00,
2013-07-04 01:11:00,65.3,63.3,30.07,WNW,293,0.0,0.0,93,0.00,,,0.00,WUHU216HW,2013-07-04 05:11:00,
2013-07-04 01:16:00,65.3,63.3,30.07,WNW,293,0.0,0.0,93,0.00,,,0.00,WUHU216HW,2013-07-04 05:16:00,
2013-07-04 01:21:00,65.3,63.3,30.07,WNW,293,0.2,0.9,93,0.00,,,0.00,WUHU216HW,2013-07-04 05:21:00,
2013-07-04 01:26:00,65.2,63.1,30.06,WNW,293,0.0,0.9,93,0.00,,,0.00,WUHU216HW,2013-07-04 05:26:00,
2013-07-04 01:31:00,65.2,63.1,30.07,WNW,293,0.0,0.9,93,0.00,,,0.00,WUHU216HW,2013-07-04 05:31:00,
2013-07-04 01:36:00,65.3,63.3,30.07,WNW,293,0.0,0.0,93,0.00,,,0.00,WUHU216HW,2013-07-04 05:36:00,
2013-07-04 01:41:00,65.3,63.3,30.07,WNW,293,0.0,0.0,93,0.00,,,0.00,WUHU216HW,2013-07-04 05:41:00,
2013-07-04 01:46:00,65.3,63.3,30.07,NW,315,0.4,0.4,93,0.00,,,0.00,WUHU216HW,2013-07-04 05:46:00,
2013-07-04 01:51:00,65.3,63.3,30.07,NW,315,0.0,0.4,93,0.00,,,0.00,WUHU216HW,2013-07-04 05:51:00,
2013-07-04 01:56:00,65.3,63.3,30.07,NW,315,0.0,0.4,93,0.00,,,0.00,WUHU216HW,2013-07-04 05:56:00,
2013-07-04 02:01:00,65.2,63.1,30.07,NW,315,0.0,0.0,93,0.00,,,0.00,WUHU216HW,2013-07-04 06:01:00,
2013-07-04 02:06:00,65.3,63.3,30.07,WSW,248,0.4,0.4,93,0.00,,,0.00,WUHU216HW,2013-07-04 06:06:00,
2013-07-04 02:11:00,65.3,63.3,30.07,WSW,248,0.0,0.7,93,0.00,,,0.00,WUHU216HW,2013-07-04 06:11:00,
2013-07-04 02:16:00,65.3,63.3,30.07,WSW,248,0.0,0.7,93,0.00,,,0.00,WUHU216HW,2013-07-04 06:16:00,
2013-07-04 02:21:00,65.3,63.3,30.07,WSW,248,0.0,0.0,93,0.00,,,0.00,WUHU216HW,2013-07-04 06:21:00,
2013-07-04 02:26:00,65.3,63.3,30.07,WSW,248,0.0,0.4,93,0.00,,,0.00,WUHU216HW,2013-07-04 06:26:00,
2013-07-04 02:31:00,65.3,63.3,30.07,NW,315,0.9,1.3,93,0.00,,,0.00,WUHU216HW,2013-07-04 06:31:00,
2013-07-04 02:36:00,65.3,63.3,30.07,NNW,338,0.7,1.8,93,0.00,,,0.00,WUHU216HW,2013-07-04 06:36:00,
2013-07-04 02:41:00,65.3,63.3,30.07,NNW,338,0.4,1.8,93,0.00,,,0.00,WUHU216HW,2013-07-04 06:41:00,
2013-07-04 02:46:00,65.3,63.5,30.06,NNW,338,0.0,1.1,94,0.00,,,0.00,WUHU216HW,2013-07-04 06:46:00,
2013-07-04 02:51:00,65.3,63.5,30.06,NNW,338,0.0,0.4,94,0.00,,,0.00,WUHU216HW,2013-07-04 06:51:00,
2013-07-04 02:56:00,65.3,63.3,30.06,NNW,338,0.0,0.0,93,0.00,,,0.00,WUHU216HW,2013-07-04 06:56:00,
2013-07-04 03:01:00,65.3,63.3,30.06,NNW,338,0.0,0.0,93,0.00,,,0.00,WUHU216HW,2013-07-04 07:01:00,
2013-07-04 03:06:00,65.3,63.5,30.06,NNW,338,0.0,0.0,94,0.00,,,0.00,WUHU216HW,2013-07-04 07:06:00,
2013-07-04 03:11:00,65.3,63.5,30.05,NNW,338,0.0,0.0,94,0.00,,,0.00,WUHU216HW,2013-07-04 07:11:00,
2013-07-04 03:16:00,65.3,63.3,30.05,NNW,338,0.0,0.0,93,0.00,,,0.00,WUHU216HW,2013-07-04 07:16:00,
2013-07-04 03:21:00,65.3,63.3,30.05,NNW,338,0.0,0.0,93,0.00,,,0.00,WUHU216HW,2013-07-04 07:21:00,
2013-07-04 03:26:00,65.3,63.3,30.06,NNW,338,0.0,0.0,93,0.00,,,0.00,WUHU216HW,2013-07-04 07:26:00,
2013-07-04 03:31:00,65.3,63.5,30.06,West,270,0.0,0.0,94,0.00,,,0.00,WUHU216HW,2013-07-04 07:31:00,
2013-07-04 03:36:00,65.3,63.3,30.06,West,270,0.0,0.0,93,0.00,,,0.00,WUHU216HW,2013-07-04 07:36:00,
2013-07-04 03:41:00,65.3,63.3,30.06,West,270,0.0,0.0,93,0.00,,,0.00,WUHU216HW,2013-07-04 07:41:00,
2013-07-04 03:46:00,65.3,63.3,30.07,West,270,0.0,0.0,93,0.00,,,0.00,WUHU216HW,2013-07-04 07:46:00,
2013-07-04 03:51:00,65.3,63.5,30.07,SW,225,0.0,0.4,94,0.00,,,0.00,WUHU216HW,2013-07-04 07:51:00,
2013-07-04 03:56:00,65.3,63.5,30.07,South,180,0.0,0.7,94,0.00,,,0.00,WUHU216HW,2013-07-04 07:56:00,
2013-07-04 04:01:00,65.3,63.5,30.07,South,180,0.2,1.1,94,0.00,,,0.00,WUHU216HW,2013-07-04 08:01:00,
2013-07-04 04:06:00,65.3,63.5,30.07,South,180,0.2,1.1,94,0.00,,,0.00,WUHU216HW,2013-07-04 08:06:00,
2013-07-04 04:11:00,65.3,63.5,30.07,WSW,248,0.0,0.9,94,0.00,,,0.00,WUHU216HW,2013-07-04 08:11:00,
2013-07-04 04:16:00,65.3,63.5,30.07,WSW,248,0.0,0.9,94,0.00,,,0.00,WUHU216HW,2013-07-04 08:16:00,
2013-07-04 04:21:00,65.3,63.5,30.07,WSW,248,0.0,0.0,94,0.00,,,0.00,WUHU216HW,2013-07-04 08:21:00,
2013-07-04 04:26:00,65.3,63.5,30.07,WSW,248,0.0,0.0,94,0.00,,,0.00,WUHU216HW,2013-07-04 08:26:00,
2013-07-04 04:31:00,65.3,63.5,30.07,WSW,248,0.0,0.0,94,0.00,,,0.00,WUHU216HW,2013-07-04 08:31:00,
2013-07-04 04:36:00,65.3,63.5,30.07,WSW,248,0.0,0.0,94,0.00,,,0.00,WUHU216HW,2013-07-04 08:36:00,
2013-07-04 04:41:00,65.3,63.5,30.07,WSW,248,0.0,0.0,94,0.00,,,0.00,WUHU216HW,2013-07-04 08:41:00,
2013-07-04 04:46:00,65.3,63.5,30.07,WSW,248,0.0,0.0,94,0.00,,,0.00,WUHU216HW,2013-07-04 08:46:00,
2013-07-04 04:51:00,65.2,63.4,30.07,WSW,248,0.0,0.0,94,0.00,,,0.00,WUHU216HW,2013-07-04 08:51:00,
2013-07-04 04:56:00,65.3,63.5,30.07,WSW,248,0.0,0.0,94,0.00,,,0.00,WUHU216HW,2013-07-04 08:56:00,
2013-07-04 05:01:00,65.3,63.5,30.07,WSW,248,0.0,0.0,94,0.00,,,0.00,WUHU216HW,2013-07-04 09:01:00,
2013-07-04 05:06:00,65.3,63.5,30.07,WSW,248,0.0,0.0,94,0.00,,,0.00,WUHU216HW,2013-07-04 09:06:00,
2013-07-04 05:11:00,65.3,63.5,30.07,WSW,248,0.0,0.0,94,0.00,,,0.00,WUHU216HW,2013-07-04 09:11:00,
2013-07-04 05:16:00,65.5,63.7,30.06,West,270,0.0,0.0,94,0.00,,,0.00,WUHU216HW,2013-07-04 09:16:00,
2013-07-04 05:21:00,65.3,63.5,30.06,West,270,0.0,0.0,94,0.00,,,0.00,WUHU216HW,2013-07-04 09:21:00,
2013-07-04 05:26:00,65.3,63.5,30.07,South,180,1.1,1.1,94,0.00,,,0.00,WUHU216HW,2013-07-04 09:26:00,
2013-07-04 05:31:00,65.3,63.5,30.07,South,180,0.0,1.1,94,0.00,,,0.00,WUHU216HW,2013-07-04 09:31:00,
2013-07-04 05:36:00,65.5,63.7,30.07,South,180,0.0,0.9,94,0.00,,,0.00,WUHU216HW,2013-07-04 09:36:00,
2013-07-04 05:41:00,65.3,63.5,30.07,South,180,0.0,0.2,94,0.00,,,0.00,WUHU216HW,2013-07-04 09:41:00,
2013-07-04 05:46:00,65.3,63.5,30.07,South,180,0.0,0.0,94,0.00,,,0.00,WUHU216HW,2013-07-04 09:46:00,
2013-07-04 05:51:00,65.3,63.5,30.07,South,180,0.0,0.0,94,0.00,,,0.00,WUHU216HW,2013-07-04 09:51:00,
2013-07-04 05:56:00,65.3,63.5,30.07,South,180,0.0,0.0,94,0.00,,,0.00,WUHU216HW,2013-07-04 09:56:00,
2013-07-04 06:01:00,65.3,63.5,30.08,South,180,0.0,0.0,94,0.00,,,0.00,WUHU216HW,2013-07-04 10:01:00,
2013-07-04 06:06:00,65.3,63.5,30.08,South,180,0.0,0.0,94,0.00,,,0.00,WUHU216HW,2013-07-04 10:06:00,
2013-07-04 06:11:00,65.5,63.7,30.08,South,180,0.0,0.0,94,0.00,,,0.00,WUHU216HW,2013-07-04 10:11:00,
2013-07-04 06:16:00,65.5,63.7,30.08,South,180,0.0,0.0,94,0.00,,,0.00,WUHU216HW,2013-07-04 10:16:00,
2013-07-04 06:21:00,65.5,63.7,30.08,South,180,0.0,0.0,94,0.00,,,0.00,WUHU216HW,2013-07-04 10:21:00,
2013-07-04 06:26:00,65.5,63.7,30.08,South,180,0.0,0.0,94,0.00,,,0.00,WUHU216HW,2013-07-04 10:26:00,
2013-07-04 06:31:00,65.5,63.7,30.09,South,180,0.0,0.0,94,0.00,,,0.00,WUHU216HW,2013-07-04 10:31:00,
2013-07-04 06:36:00,65.7,63.9,30.09,South,180,0.0,0.0,94,0.00,,,0.00,WUHU216HW,2013-07-04 10:36:00,
2013-07-04 06:41:00,65.7,63.9,30.09,South,180,0.0,0.0,94,0.00,,,0.00,WUHU216HW,2013-07-04 10:41:00,
2013-07-04 06:46:00,65.9,64.1,30.09,South,180,0.0,0.0,94,0.00,,,0.00,WUHU216HW,2013-07-04 10:46:00,
2013-07-04 06:51:00,65.9,64.1,30.09,South,180,0.0,0.0,94,0.00,,,0.00,WUHU216HW,2013-07-04 10:51:00,
2013-07-04 06:56:00,65.9,64.1,30.09,South,180,0.0,0.0,94,0.00,,,0.00,WUHU216HW,2013-07-04 10:56:00,
2013-07-04 07:01:00,65.9,64.1,30.09,South,180,0.0,0.0,94,0.00,,,0.00,WUHU216HW,2013-07-04 11:01:00,
2013-07-04 07:06:00,65.9,64.1,30.09,South,180,0.0,0.0,94,0.00,,,0.00,WUHU216HW,2013-07-04 11:06:00,
2013-07-04 07:11:00,65.9,64.1,30.10,South,180,0.0,0.0,94,0.01,,,0.00,WUHU216HW,2013-07-04 11:11:00,
2013-07-04 07:16:00,65.9,64.1,30.10,South,180,0.0,0.0,94,0.01,,,0.00,WUHU216HW,2013-07-04 11:16:00,
2013-07-04 07:21:00,66.1,64.3,30.10,South,180,0.7,0.7,94,0.01,,,0.00,WUHU216HW,2013-07-04 11:21:00,
2013-07-04 07:26:00,66.1,64.3,30.10,South,180,0.0,0.9,94,0.01,,,0.00,WUHU216HW,2013-07-04 11:26:00,
2013-07-04 07:31:00,66.2,64.5,30.10,South,180,0.0,0.9,94,0.01,,,0.00,WUHU216HW,2013-07-04 11:31:00,
2013-07-04 07:36:00,66.2,64.5,30.10,South,180,0.0,0.0,94,0.02,,,0.02,WUHU216HW,2013-07-04 11:36:00,
2013-07-04 07:41:00,66.2,64.5,30.11,South,180,0.0,0.0,94,0.02,,,0.02,WUHU216HW,2013-07-04 11:41:00,
2013-07-04 07:46:00,66.4,64.6,30.11,South,180,0.0,0.0,94,0.02,,,0.02,WUHU216HW,2013-07-04 11:46:00,
2013-07-04 07:51:00,66.6,64.8,30.11,South,180,0.0,0.7,94,0.02,,,0.02,WUHU216HW,2013-07-04 11:51:00,
2013-07-04 07:56:00,66.4,64.6,30.11,South,180,0.0,0.7,94,0.02,,,0.02,WUHU216HW,2013-07-04 11:56:00,
2013-07-04 08:01:00,66.6,64.8,30.11,South,180,0.0,0.0,94,0.02,,,0.02,WUHU216HW,2013-07-04 12:01:00,
2013-07-04 08:06:00,66.6,65.1,30.11,South,180,0.0,0.0,95,0.01,,,0.02,WUHU216HW,2013-07-04 12:06:00,
2013-07-04 08:11:00,66.6,65.1,30.11,South,180,0.4,0.9,95,0.01,,,0.02,WUHU216HW,2013-07-04 12:11:00,
2013-07-04 08:16:00,66.8,65.3,30.11,South,180,0.0,0.9,95,0.01,,,0.02,WUHU216HW,2013-07-04 12:16:00,
2013-07-04 08:21:00,66.6,65.1,30.11,South,180,0.0,0.7,95,0.01,,,0.02,WUHU216HW,2013-07-04 12:21:00,
2013-07-04 08:26:00,66.8,65.3,30.11,South,180,0.0,0.0,95,0.01,,,0.02,WUHU216HW,2013-07-04 12:26:00,
2013-07-04 08:31:00,67.0,65.4,30.11,South,180,0.0,0.0,95,0.01,,,0.02,WUHU216HW,2013-07-04 12:31:00,
2013-07-04 08:36:00,67.1,65.6,30.10,South,180,0.0,0.0,95,0.00,,,0.02,WUHU216HW,2013-07-04 12:36:00,
2013-07-04 08:41:00,67.3,65.8,30.11,South,180,0.0,0.0,95,0.00,,,0.02,WUHU216HW,2013-07-04 12:41:00,
2013-07-04 08:46:00,67.3,65.8,30.10,North,0,0.0,0.4,95,0.00,,,0.02,WUHU216HW,2013-07-04 12:46:00,
2013-07-04 08:51:00,67.7,66.2,30.11,NNW,338,0.0,0.4,95,0.00,,,0.02,WUHU216HW,2013-07-04 12:51:00,
2013-07-04 08:56:00,67.9,66.3,30.11,NNW,338,0.0,0.0,95,0.00,,,0.02,WUHU216HW,2013-07-04 12:56:00,
2013-07-04 09:01:00,67.9,66.3,30.10,NNW,338,0.0,0.4,95,0.00,,,0.02,WUHU216HW,2013-07-04 13:01:00,
2013-07-04 09:06:00,68.0,66.5,30.11,SW,225,0.0,1.3,95,0.00,,,0.02,WUHU216HW,2013-07-04 13:06:00,
2013-07-04 09:11:00,68.0,66.5,30.11,South,180,0.0,1.3,95,0.00,,,0.02,WUHU216HW,2013-07-04 13:11:00,
2013-07-04 09:16:00,68.2,66.7,30.11,South,180,0.0,0.4,95,0.00,,,0.02,WUHU216HW,2013-07-04 13:16:00,
2013-07-04 09:21:00,68.4,66.9,30.11,West,270,0.0,0.4,95,0.00,,,0.02,WUHU216HW,2013-07-04 13:21:00,
2013-07-04 09:26:00,68.6,67.1,30.11,SSW,203,0.0,0.9,95,0.00,,,0.02,WUHU216HW,2013-07-04 13:26:00,
2013-07-04 09:31:00,68.6,67.1,30.11,South,180,0.0,0.9,95,0.00,,,0.02,WUHU216HW,2013-07-04 13:31:00,
2013-07-04 09:36:00,68.8,67.2,30.11,NW,315,0.0,0.4,95,0.00,,,0.02,WUHU216HW,2013-07-04 13:36:00,
2013-07-04 09:41:00,68.8,67.2,30.10,NE,45,0.7,0.9,95,0.00,,,0.02,WUHU216HW,2013-07-04 13:41:00,
2013-07-04 09:46:00,69.1,67.6,30.10,SW,225,1.1,1.1,95,0.00,,,0.02,WUHU216HW,2013-07-04 13:46:00,
2013-07-04 09:51:00,69.1,67.6,30.10,South,180,0.2,1.8,95,0.00,,,0.02,WUHU216HW,2013-07-04 13:51:00,
2013-07-04 09:56:00,69.3,67.8,30.10,South,180,0.0,1.8,95,0.00,,,0.02,WUHU216HW,2013-07-04 13:56:00,
2013-07-04 10:01:00,69.5,68.0,30.10,South,180,0.0,0.7,95,0.00,,,0.02,WUHU216HW,2013-07-04 14:01:00,
2013-07-04 10:06:00,69.7,67.9,30.10,South,180,0.0,0.0,94,0.00,,,0.02,WUHU216HW,2013-07-04 14:06:00,
2013-07-04 10:11:00,69.5,67.7,30.10,South,180,0.0,0.4,94,0.00,,,0.02,WUHU216HW,2013-07-04 14:11:00,
2013-07-04 10:16:00,69.7,67.9,30.09,SSE,158,0.0,0.4,94,0.00,,,0.02,WUHU216HW,2013-07-04 14:16:00,
2013-07-04 10:21:00,69.7,67.9,30.09,SSE,158,0.0,0.0,94,0.00,,,0.02,WUHU216HW,2013-07-04 14:21:00,
2013-07-04 10:26:00,69.8,68.1,30.09,SSW,203,0.0,1.1,94,0.00,,,0.02,WUHU216HW,2013-07-04 14:26:00,
2013-07-04 10:31:00,70.2,68.4,30.09,SSW,203,0.0,1.1,94,0.00,,,0.02,WUHU216HW,2013-07-04 14:31:00,
2013-07-04 10:36:00,70.4,68.6,30.09,WSW,248,0.0,1.1,94,0.00,,,0.02,WUHU216HW,2013-07-04 14:36:00,
2013-07-04 10:41:00,70.6,68.8,30.09,NW,315,0.0,1.1,94,0.00,,,0.02,WUHU216HW,2013-07-04 14:41:00,
2013-07-04 10:46:00,70.6,68.8,30.09,NW,315,0.0,0.9,94,0.00,,,0.02,WUHU216HW,2013-07-04 14:46:00,
2013-07-04 10:51:00,70.6,68.8,30.09,NW,315,0.0,0.9,94,0.00,,,0.02,WUHU216HW,2013-07-04 14:51:00,
2013-07-04 10:56:00,70.6,68.8,30.09,NNW,338,0.9,0.9,94,0.00,,,0.02,WUHU216HW,2013-07-04 14:56:00,
2013-07-04 11:01:00,70.6,68.8,30.09,NNW,338,0.0,1.6,94,0.00,,,0.02,WUHU216HW,2013-07-04 15:01:00,
2013-07-04 11:06:00,70.6,68.8,30.09,NNW,338,0.0,1.6,94,0.00,,,0.02,WUHU216HW,2013-07-04 15:06:00,
2013-07-04 11:11:00,70.6,68.8,30.09,NNW,338,0.0,0.9,94,0.00,,,0.02,WUHU216HW,2013-07-04 15:11:00,
2013-07-04 11:16:00,70.6,68.8,30.09,NNW,338,0.0,0.9,94,0.00,,,0.02,WUHU216HW,2013-07-04 15:16:00,
2013-07-04 11:21:00,70.7,69.0,30.09,SW,225,0.7,0.7,94,0.00,,,0.02,WUHU216HW,2013-07-04 15:21:00,
2013-07-04 11:26:00,70.9,69.1,30.09,South,180,0.0,0.7,94,0.00,,,0.02,WUHU216HW,2013-07-04 15:26:00,
2013-07-04 11:31:00,71.3,69.5,30.09,ENE,68,0.4,0.7,94,0.00,,,0.02,WUHU216HW,2013-07-04 15:31:00,
2013-07-04 11:36:00,71.6,69.9,30.09,ENE,68,0.9,1.6,94,0.00,,,0.02,WUHU216HW,2013-07-04 15:36:00,
2013-07-04 11:41:00,72.0,70.2,30.09,NE,45,0.0,1.6,94,0.00,,,0.02,WUHU216HW,2013-07-04 15:41:00,
2013-07-04 11:46:00,72.4,70.2,30.09,NNW,338,0.7,1.1,93,0.00,,,0.02,WUHU216HW,2013-07-04 15:46:00,
2013-07-04 11:51:00,72.4,70.6,30.09,South,180,1.3,1.3,94,0.00,,,0.02,WUHU216HW,2013-07-04 15:51:00,
2013-07-04 11:56:00,72.7,70.6,30.09,West,270,0.0,1.3,93,0.00,,,0.02,WUHU216HW,2013-07-04 15:56:00,
2013-07-04 12:01:00,72.7,70.6,30.09,SW,225,0.0,1.6,93,0.00,,,0.02,WUHU216HW,2013-07-04 16:01:00,
2013-07-04 12:06:00,72.9,70.1,30.09,North,0,0.9,2.0,91,0.00,,,0.02,WUHU216HW,2013-07-04 16:06:00,
2013-07-04 12:11:00,73.1,70.7,30.09,ESE,113,1.8,2.7,92,0.00,,,0.02,WUHU216HW,2013-07-04 16:11:00,
2013-07-04 12:16:00,73.6,71.2,30.09,SW,225,0.9,2.7,92,0.00,,,0.02,WUHU216HW,2013-07-04 16:16:00,
2013-07-04 12:21:00,74.3,71.6,30.09,SSW,203,0.4,2.0,91,0.00,,,0.02,WUHU216HW,2013-07-04 16:21:00,
2013-07-04 12:26:00,74.7,71.6,30.09,SSE,158,1.3,2.0,90,0.00,,,0.02,WUHU216HW,2013-07-04 16:26:00,
2013-07-04 12:31:00,74.9,70.8,30.09,SW,225,1.3,2.0,87,0.00,,,0.02,WUHU216HW,2013-07-04 16:31:00,
2013-07-04 12:36:00,74.9,70.8,30.09,SSW,203,1.8,2.2,87,0.00,,,0.02,WUHU216HW,2013-07-04 16:36:00,
2013-07-04 12:41:00,74.9,71.1,30.09,SE,135,0.4,2.2,88,0.00,,,0.02,WUHU216HW,2013-07-04 16:41:00,
2013-07-04 12:46:00,74.5,70.7,30.09,SE,135,0.9,1.8,88,0.00,,,0.02,WUHU216HW,2013-07-04 16:46:00,
2013-07-04 12:51:00,74.5,70.7,30.09,SW,225,0.9,4.5,88,0.00,,,0.02,WUHU216HW,2013-07-04 16:51:00,
2013-07-04 12:56:00,74.7,71.3,30.09,WSW,248,1.1,4.5,89,0.00,,,0.02,WUHU216HW,2013-07-04 16:56:00,
2013-07-04 13:01:00,74.7,71.3,30.09,WSW,248,0.9,1.6,89,0.00,,,0.02,WUHU216HW,2013-07-04 17:01:00,
2013-07-04 13:06:00,74.7,69.9,30.09,SE,135,2.7,2.7,85,0.00,,,0.02,WUHU216HW,2013-07-04 17:06:00,
2013-07-04 13:11:00,74.5,70.1,30.09,SW,225,1.3,2.7,86,0.00,,,0.02,WUHU216HW,2013-07-04 17:11:00,
2013-07-04 13:16:00,74.5,70.1,30.09,NNE,23,1.1,2.5,86,0.00,,,0.02,WUHU216HW,2013-07-04 17:16:00,
2013-07-04 13:21:00,74.5,70.7,30.09,NW,315,1.3,2.5,88,0.00,,,0.02,WUHU216HW,2013-07-04 17:21:00,
2013-07-04 13:26:00,74.5,70.5,30.09,SSE,158,0.4,2.9,87,0.00,,,0.02,WUHU216HW,2013-07-04 17:26:00,
2013-07-04 13:31:00,74.3,70.6,30.09,West,270,0.9,2.9,88,0.00,,,0.02,WUHU216HW,2013-07-04 17:31:00,
2013-07-04 13:36:00,74.5,70.5,30.08,NE,45,0.7,1.6,87,0.00,,,0.02,WUHU216HW,2013-07-04 17:36:00,
2013-07-04 13:41:00,74.3,70.3,30.09,SSW,203,0.9,2.7,87,0.00,,,0.02,WUHU216HW,2013-07-04 17:41:00,
2013-07-04 13:46:00,74.2,70.1,30.09,WNW,293,0.7,2.7,87,0.00,,,0.02,WUHU216HW,2013-07-04 17:46:00,
2013-07-04 13:51:00,74.3,70.3,30.08,North,0,0.4,1.8,87,0.00,,,0.02,WUHU216HW,2013-07-04 17:51:00,
2013-07-04 13:56:00,75.1,71.6,30.08,North,0,1.8,1.8,89,0.00,,,0.02,WUHU216HW,2013-07-04 17:56:00,
2013-07-04 14:01:00,75.2,70.8,30.08,East,90,1.1,2.5,86,0.00,,,0.02,WUHU216HW,2013-07-04 18:01:00,
2013-07-04 14:06:00,75.8,70.3,30.08,SE,135,1.8,2.9,83,0.00,,,0.02,WUHU216HW,2013-07-04 18:06:00,
2013-07-04 14:11:00,76.0,71.2,30.08,NE,45,0.4,2.9,85,0.00,,,0.02,WUHU216HW,2013-07-04 18:11:00,
2013-07-04 14:16:00,75.6,70.1,30.08,North,0,1.3,3.6,83,0.00,,,0.02,WUHU216HW,2013-07-04 18:16:00,
2013-07-04 14:21:00,75.4,71.0,30.08,SSE,158,0.9,3.6,86,0.00,,,0.02,WUHU216HW,2013-07-04 18:21:00,
2013-07-04 14:26:00,75.8,71.4,30.08,WSW,248,0.2,2.5,86,0.00,,,0.02,WUHU216HW,2013-07-04 18:26:00,
2013-07-04 14:31:00,76.3,71.5,30.08,SSE,158,1.1,2.5,85,0.01,,,0.02,WUHU216HW,2013-07-04 18:31:00,
2013-07-04 14:36:00,76.7,71.1,30.08,SW,225,0.9,4.7,83,0.01,,,0.02,WUHU216HW,2013-07-04 18:36:00,
2013-07-04 14:41:00,76.9,71.3,30.08,East,90,0.7,4.7,83,0.01,,,0.02,WUHU216HW,2013-07-04 18:41:00,
2013-07-04 14:46:00,77.2,72.0,30.08,WNW,293,1.1,1.8,84,0.01,,,0.02,WUHU216HW,2013-07-04 18:46:00,
2013-07-04 14:51:00,77.9,72.4,30.08,SW,225,0.9,2.2,83,0.01,,,0.02,WUHU216HW,2013-07-04 18:51:00,
2013-07-04 14:56:00,78.7,72.4,30.07,SSW,203,1.1,2.2,81,0.01,,,0.02,WUHU216HW,2013-07-04 18:56:00,
2013-07-04 15:01:00,79.2,72.5,30.07,WSW,248,1.3,1.8,80,0.01,,,0.02,WUHU216HW,2013-07-04 19:01:00,
2013-07-04 15:06:00,79.2,72.5,30.07,SW,225,3.4,3.4,80,0.01,,,0.02,WUHU216HW,2013-07-04 19:06:00,
2013-07-04 15:11:00,79.7,71.1,30.07,WSW,248,1.8,3.4,75,0.01,,,0.02,WUHU216HW,2013-07-04 19:11:00,
2013-07-04 15:16:00,79.2,70.6,30.07,SW,225,0.7,3.4,75,0.01,,,0.02,WUHU216HW,2013-07-04 19:16:00,
2013-07-04 15:21:00,78.8,71.0,30.07,SSW,203,2.7,2.7,77,0.01,,,0.02,WUHU216HW,2013-07-04 19:21:00,
2013-07-04 15:26:00,79.2,71.4,30.07,South,180,1.8,2.7,77,0.01,,,0.02,WUHU216HW,2013-07-04 19:26:00,
2013-07-04 15:31:00,80.3,71.6,30.06,SW,225,0.9,3.4,75,0.00,,,0.02,WUHU216HW,2013-07-04 19:31:00,
2013-07-04 15:36:00,80.6,72.0,30.06,SSW,203,0.4,3.4,75,0.00,,,0.02,WUHU216HW,2013-07-04 19:36:00,
2013-07-04 15:41:00,80.6,72.0,30.06,SW,225,1.8,2.9,75,0.00,,,0.02,WUHU216HW,2013-07-04 19:41:00,
2013-07-04 15:46:00,80.6,71.2,30.06,South,180,1.8,2.9,73,0.00,,,0.02,WUHU216HW,2013-07-04 19:46:00,
2013-07-04 15:51:00,81.2,71.3,30.06,West,270,1.6,2.5,72,0.00,,,0.02,WUHU216HW,2013-07-04 19:51:00,
2013-07-04 15:56:00,81.4,71.1,30.06,North,0,0.4,3.1,71,0.00,,,0.02,WUHU216HW,2013-07-04 19:56:00,
2013-07-04 16:01:00,80.6,71.2,30.06,WSW,248,2.0,3.1,73,0.00,,,0.02,WUHU216HW,2013-07-04 20:01:00,
2013-07-04 16:06:00,79.9,71.3,30.06,SW,225,0.4,2.0,75,0.00,,,0.02,WUHU216HW,2013-07-04 20:06:00,
2013-07-04 16:11:00,80.3,71.6,30.05,WSW,248,2.2,2.5,75,0.00,,,0.02,WUHU216HW,2013-07-04 20:11:00,
2013-07-04 16:16:00,80.8,71.4,30.05,SE,135,0.4,2.5,73,0.00,,,0.02,WUHU216HW,2013-07-04 20:16:00,
2013-07-04 16:21:00,80.3,69.7,30.05,WSW,248,2.2,2.5,70,0.00,,,0.02,WUHU216HW,2013-07-04 20:21:00,
2013-07-04 16:26:00,79.9,70.9,30.05,SSW,203,0.7,2.2,74,0.00,,,0.02,WUHU216HW,2013-07-04 20:26:00,
2013-07-04 16:31:00,79.2,70.2,30.04,SW,225,0.4,2.0,74,0.00,,,0.02,WUHU216HW,2013-07-04 20:31:00,
2013-07-04 16:36:00,78.7,70.0,30.04,NNE,23,0.2,3.1,75,0.00,,,0.02,WUHU216HW,2013-07-04 20:36:00,
2013-07-04 16:41:00,78.5,70.3,30.04,East,90,0.4,3.1,76,0.00,,,0.02,WUHU216HW,2013-07-04 20:41:00,
2013-07-04 16:46:00,78.1,70.7,30.04,East,90,0.9,3.1,78,0.00,,,0.02,WUHU216HW,2013-07-04 20:46:00,
2013-07-04 16:51:00,78.5,69.8,30.04,SSE,158,0.4,3.8,75,0.00,,,0.02,WUHU216HW,2013-07-04 20:51:00,
2013-07-04 16:56:00,78.8,71.0,30.04,NNE,23,1.3,3.8,77,0.00,,,0.02,WUHU216HW,2013-07-04 20:56:00,
2013-07-04 17:01:00,78.8,70.6,30.04,ENE,68,1.1,1.6,76,0.00,,,0.02,WUHU216HW,2013-07-04 21:01:00,
2013-07-04 17:06:00,78.8,71.8,30.04,East,90,2.0,2.7,79,0.00,,,0.02,WUHU216HW,2013-07-04 21:06:00,
2013-07-04 17:11:00,79.0,70.7,30.04,North,0,1.6,2.9,76,0.00,,,0.02,WUHU216HW,2013-07-04 21:11:00,
2013-07-04 17:16:00,79.4,70.4,30.04,West,270,1.1,2.9,74,0.00,,,0.02,WUHU216HW,2013-07-04 21:16:00,
2013-07-04 17:21:00,79.9,71.3,30.04,ENE,68,0.7,2.2,75,0.00,,,0.02,WUHU216HW,2013-07-04 21:21:00,
2013-07-04 17:26:00,79.2,70.9,30.03,SW,225,2.5,2.5,76,0.00,,,0.02,WUHU216HW,2013-07-04 21:26:00,
2013-07-04 17:31:00,78.7,70.8,30.04,SW,225,0.2,2.5,77,0.00,,,0.02,WUHU216HW,2013-07-04 21:31:00,
2013-07-04 17:36:00,78.5,70.3,30.04,WSW,248,1.1,2.5,76,0.00,,,0.02,WUHU216HW,2013-07-04 21:36:00,
2013-07-04 17:41:00,78.3,70.1,30.04,WSW,248,0.0,2.2,76,0.00,,,0.02,WUHU216HW,2013-07-04 21:41:00,
2013-07-04 17:46:00,77.8,70.3,30.03,NE,45,1.3,3.1,78,0.00,,,0.02,WUHU216HW,2013-07-04 21:46:00,
2013-07-04 17:51:00,77.2,69.9,30.04,NNE,23,0.4,3.1,78,0.00,,,0.02,WUHU216HW,2013-07-04 21:51:00,
2013-07-04 17:56:00,76.7,69.3,30.04,WSW,248,0.4,2.0,78,0.00,,,0.02,WUHU216HW,2013-07-04 21:56:00,
2013-07-04 18:01:00,76.5,69.5,30.04,East,90,0.2,2.0,79,0.00,,,0.02,WUHU216HW,2013-07-04 22:01:00,
2013-07-04 18:06:00,76.5,69.5,30.04,WSW,248,0.0,3.4,79,0.00,,,0.02,WUHU216HW,2013-07-04 22:06:00,
2013-07-04 18:11:00,76.7,69.3,30.04,NNW,338,0.4,3.4,78,0.00,,,0.02,WUHU216HW,2013-07-04 22:11:00,
2013-07-04 18:16:00,76.1,69.6,30.04,North,0,0.9,1.8,80,0.00,,,0.02,WUHU216HW,2013-07-04 22:16:00,
2013-07-04 18:21:00,76.0,69.4,30.04,NE,45,1.8,1.8,80,0.00,,,0.02,WUHU216HW,2013-07-04 22:21:00,
2013-07-04 18:26:00,75.8,69.2,30.05,NNE,23,0.2,2.0,80,0.00,,,0.02,WUHU216HW,2013-07-04 22:26:00,
2013-07-04 18:31:00,75.4,69.0,30.05,NE,45,2.5,2.5,80,0.00,,,0.02,WUHU216HW,2013-07-04 22:31:00,
2013-07-04 18:36:00,75.1,69.0,30.04,NE,45,0.0,2.5,81,0.00,,,0.02,WUHU216HW,2013-07-04 22:36:00,
2013-07-04 18:41:00,74.9,68.1,30.05,NNW,338,2.5,2.5,79,0.00,,,0.02,WUHU216HW,2013-07-04 22:41:00,
2013-07-04 18:46:00,74.5,68.4,30.05,ENE,68,0.9,2.5,81,0.00,,,0.02,WUHU216HW,2013-07-04 22:46:00,
2013-07-04 18:51:00,74.2,68.4,30.05,NE,45,0.4,3.4,82,0.00,,,0.02,WUHU216HW,2013-07-04 22:51:00,
2013-07-04 18:56:00,74.0,68.5,30.05,NNW,338,0.0,3.4,83,0.00,,,0.02,WUHU216HW,2013-07-04 22:56:00,
2013-07-04 19:01:00,73.8,68.3,30.05,NW,315,0.0,1.1,83,0.00,,,0.02,WUHU216HW,2013-07-04 23:01:00,
2013-07-04 19:06:00,73.8,68.3,30.05,North,0,0.4,0.7,83,0.00,,,0.02,WUHU216HW,2013-07-04 23:06:00,
2013-07-04 19:11:00,74.0,68.9,30.05,NE,45,0.2,1.3,84,0.00,,,0.02,WUHU216HW,2013-07-04 23:11:00,
2013-07-04 19:16:00,73.8,68.3,30.05,NE,45,0.4,1.3,83,0.00,,,0.02,WUHU216HW,2013-07-04 23:16:00,
2013-07-04 19:21:00,73.8,68.7,30.05,NNE,23,1.1,1.3,84,0.00,,,0.02,WUHU216HW,2013-07-04 23:21:00,
2013-07-04 19:26:00,74.0,68.9,30.05,SW,225,0.9,2.2,84,0.00,,,0.02,WUHU216HW,2013-07-04 23:26:00,
2013-07-04 19:31:00,74.2,69.0,30.05,NNE,23,1.6,2.2,84,0.00,,,0.02,WUHU216HW,2013-07-04 23:31:00,
2013-07-04 19:36:00,74.0,68.5,30.05,North,0,1.8,2.5,83,0.00,,,0.02,WUHU216HW,2013-07-04 23:36:00,
2013-07-04 19:41:00,73.4,68.7,30.05,NW,315,1.1,2.5,85,0.00,,,0.02,WUHU216HW,2013-07-04 23:41:00,
2013-07-04 19:46:00,72.9,68.1,30.05,SSE,158,0.9,2.0,85,0.00,,,0.02,WUHU216HW,2013-07-04 23:46:00,
2013-07-04 19:51:00,72.4,68.0,30.06,NNW,338,0.9,2.2,86,0.00,,,0.02,WUHU216HW,2013-07-04 23:51:00,
2013-07-04 19:56:00,72.2,67.8,30.07,SW,225,1.1,2.5,86,0.00,,,0.02,WUHU216HW,2013-07-04 23:56:00,
2013-07-04 20:01:00,72.0,67.6,30.07,North,0,0.7,2.5,86,0.00,,,0.02,WUHU216HW,2013-07-05 00:01:00,
2013-07-04 20:06:00,71.6,67.2,30.07,NW,315,0.9,1.8,86,0.00,,,0.02,WUHU216HW,2013-07-05 00:06:00,
2013-07-04 20:11:00,71.6,66.9,30.07,West,270,0.4,1.8,85,0.00,,,0.02,WUHU216HW,2013-07-05 00:11:00,
2013-07-04 20:16:00,71.6,66.9,30.08,North,0,0.0,1.8,85,0.00,,,0.02,WUHU216HW,2013-07-05 00:16:00,
2013-07-04 20:21:00,71.3,66.5,30.07,NW,315,0.7,0.9,85,0.00,,,0.02,WUHU216HW,2013-07-05 00:21:00,
2013-07-04 20:26:00,71.3,66.5,30.08,NNW,338,0.4,1.8,85,0.00,,,0.02,WUHU216HW,2013-07-05 00:26:00,
2013-07-04 20:31:00,71.3,66.5,30.08,NE,45,0.4,1.8,85,0.00,,,0.02,WUHU216HW,2013-07-05 00:31:00,
2013-07-04 20:36:00,71.1,66.7,30.07,NE,45,0.0,1.1,86,0.00,,,0.02,WUHU216HW,2013-07-05 00:36:00,
2013-07-04 20:41:00,70.9,66.5,30.07,NNE,23,0.0,1.1,86,0.00,,,0.02,WUHU216HW,2013-07-05 00:41:00,
2013-07-04 20:46:00,70.9,66.5,30.07,NNE,23,0.7,1.1,86,0.00,,,0.02,WUHU216HW,2013-07-05 00:46:00,
2013-07-04 20:51:00,70.7,66.3,30.07,NE,45,0.0,1.1,86,0.00,,,0.02,WUHU216HW,2013-07-05 00:51:00,
2013-07-04 20:56:00,70.6,66.2,30.07,NE,45,0.2,0.7,86,0.00,,,0.02,WUHU216HW,2013-07-05 00:56:00,
2013-07-04 21:01:00,70.4,66.0,30.07,NE,45,0.0,0.7,86,0.00,,,0.02,WUHU216HW,2013-07-05 01:01:00,
2013-07-04 21:06:00,70.2,65.8,30.07,NE,45,0.2,0.7,86,0.00,,,0.02,WUHU216HW,2013-07-05 01:06:00,
2013-07-04 21:11:00,70.2,66.2,30.07,NE,45,0.0,0.4,87,0.00,,,0.02,WUHU216HW,2013-07-05 01:11:00,
2013-07-04 21:16:00,70.0,66.0,30.07,East,90,0.2,0.9,87,0.00,,,0.02,WUHU216HW,2013-07-05 01:16:00,
2013-07-04 21:21:00,70.0,66.0,30.07,East,90,0.0,1.1,87,0.00,,,0.02,WUHU216HW,2013-07-05 01:21:00,
2013-07-04 21:26:00,69.8,65.8,30.07,East,90,0.0,1.1,87,0.00,,,0.02,WUHU216HW,2013-07-05 01:26:00,
2013-07-04 21:31:00,69.8,66.1,30.07,NNE,23,0.0,1.1,88,0.00,,,0.02,WUHU216HW,2013-07-05 01:31:00,
2013-07-04 21:36:00,69.5,65.7,30.07,NNE,23,0.0,1.1,88,0.00,,,0.02,WUHU216HW,2013-07-05 01:36:00,
2013-07-04 21:41:00,69.5,65.7,30.07,SSW,203,0.2,2.0,88,0.00,,,0.02,WUHU216HW,2013-07-05 01:41:00,
2013-07-04 21:46:00,69.5,65.7,30.07,WSW,248,0.0,2.0,88,0.00,,,0.02,WUHU216HW,2013-07-05 01:46:00,
2013-07-04 21:51:00,69.5,65.7,30.07,WSW,248,0.0,0.2,88,0.00,,,0.02,WUHU216HW,2013-07-05 01:51:00,
2013-07-04 21:56:00,69.3,65.6,30.07,WNW,293,0.0,0.0,88,0.00,,,0.02,WUHU216HW,2013-07-05 01:56:00,
2013-07-04 22:01:00,69.3,65.6,30.08,WNW,293,0.0,0.0,88,0.00,,,0.02,WUHU216HW,2013-07-05 02:01:00,
2013-07-04 22:06:00,69.3,65.6,30.08,WNW,293,0.0,0.0,88,0.00,,,0.02,WUHU216HW,2013-07-05 02:06:00,
2013-07-04 22:11:00,69.3,65.6,30.07,West,270,0.4,1.8,88,0.00,,,0.02,WUHU216HW,2013-07-05 02:11:00,
2013-07-04 22:16:00,69.3,65.6,30.08,WNW,293,0.0,1.8,88,0.00,,,0.02,WUHU216HW,2013-07-05 02:16:00,
2013-07-04 22:21:00,69.3,65.6,30.08,WNW,293,0.0,0.4,88,0.00,,,0.02,WUHU216HW,2013-07-05 02:21:00,
2013-07-04 22:26:00,69.5,65.7,30.08,WNW,293,0.7,0.7,88,0.00,,,0.02,WUHU216HW,2013-07-05 02:26:00,
2013-07-04 22:31:00,69.5,65.7,30.08,North,0,0.0,0.7,88,0.00,,,0.02,WUHU216HW,2013-07-05 02:31:00,
2013-07-04 22:36:00,69.5,65.7,30.08,North,0,0.0,0.7,88,0.00,,,0.02,WUHU216HW,2013-07-05 02:36:00,
2013-07-04 22:41:00,69.3,65.6,30.07,North,0,0.0,0.2,88,0.00,,,0.02,WUHU216HW,2013-07-05 02:41:00,
2013-07-04 22:46:00,69.3,65.6,30.08,North,0,0.0,0.4,88,0.00,,,0.02,WUHU216HW,2013-07-05 02:46:00,
2013-07-04 22:51:00,69.5,65.7,30.08,NNW,338,0.0,0.9,88,0.00,,,0.02,WUHU216HW,2013-07-05 02:51:00,
2013-07-04 22:56:00,69.3,65.6,30.08,NNW,338,0.0,0.9,88,0.00,,,0.02,WUHU216HW,2013-07-05 02:56:00,
2013-07-04 23:01:00,69.3,65.6,30.08,SSW,203,0.4,1.1,88,0.00,,,0.02,WUHU216HW,2013-07-05 03:01:00,
2013-07-04 23:06:00,69.1,65.4,30.09,South,180,0.0,1.1,88,0.00,,,0.02,WUHU216HW,2013-07-05 03:06:00,
2013-07-04 23:11:00,69.1,65.4,30.09,NNW,338,0.2,1.6,88,0.00,,,0.02,WUHU216HW,2013-07-05 03:11:00,
2013-07-04 23:16:00,69.1,65.4,30.09,WSW,248,0.0,1.6,88,0.00,,,0.02,WUHU216HW,2013-07-05 03:16:00,
2013-07-04 23:21:00,69.1,65.4,30.09,NE,45,0.4,0.9,88,0.00,,,0.02,WUHU216HW,2013-07-05 03:21:00,
2013-07-04 23:26:00,69.1,65.4,30.09,East,90,1.1,1.6,88,0.00,,,0.02,WUHU216HW,2013-07-05 03:26:00,
2013-07-04 23:31:00,69.1,65.4,30.09,NW,315,0.2,1.8,88,0.00,,,0.02,WUHU216HW,2013-07-05 03:31:00,
2013-07-04 23:36:00,69.1,65.7,30.09,South,180,0.0,1.8,89,0.00,,,0.02,WUHU216HW,2013-07-05 03:36:00,
2013-07-04 23:41:00,69.1,65.4,30.09,ENE,68,0.0,1.6,88,0.00,,,0.02,WUHU216HW,2013-07-05 03:41:00,
2013-07-04 23:46:00,69.3,65.6,30.09,SW,225,0.0,1.1,88,0.00,,,0.02,WUHU216HW,2013-07-05 03:46:00,
2013-07-04 23:51:00,69.5,65.7,30.09,NNE,23,0.0,0.7,88,0.00,,,0.02,WUHU216HW,2013-07-05 03:51:00,
2013-07-04 23:56:00,69.5,65.7,30.09,NW,315,0.0,0.7,88,0.00,,,0.02,WUHU216HW,2013-07-05 03:56:00,